N709LP KPWM-KBXM

Flight info

Callsign N709LP
Flight time 0h 12m
Altitude VFR/
Route
Aircraft CL60/M-SBDE1E2E3FGHIJ1J4J5J7M3RWXYZ/LB1V1D1

Departure

Time 2026-05-08 02:25
Airport Portland International Jetport (KPWM)

Arrival

Time 2026-05-08 02:38
Airport Brunswick Executive Airport (KBXM)
Time Latitude Longitude Altitude Speed Heading
2026-05-08 02:18 43.64926 -70.30837 57 ft 0 kts 360°
2026-05-08 02:20 43.64951 -70.30823 56 ft 7 kts 58°
2026-05-08 02:20 43.64955 -70.30730 53 ft 10 kts 112°
2026-05-08 02:20 43.64866 -70.30714 52 ft 16 kts 177°
2026-05-08 02:20 43.64735 -70.30705 52 ft 21 kts 176°
2026-05-08 02:21 43.64638 -70.30701 51 ft 11 kts 180°
2026-05-08 02:21 43.64568 -70.30677 51 ft 12 kts 122°
2026-05-08 02:21 43.64558 -70.30539 48 ft 14 kts 95°
2026-05-08 02:21 43.64558 -70.30426 44 ft 13 kts 73°
2026-05-08 02:22 43.64587 -70.30254 38 ft 22 kts 89°
2026-05-08 02:22 43.64578 -70.30103 33 ft 16 kts 95°
2026-05-08 02:22 43.64567 -70.29974 29 ft 14 kts 97°
2026-05-08 02:22 43.64508 -70.29919 28 ft 6 kts 179°
2026-05-08 02:23 43.64497 -70.29919 28 ft 0 kts 179°
2026-05-08 02:24 43.64476 -70.29919 29 ft 9 kts 179°
2026-05-08 02:24 43.64408 -70.29950 31 ft 12 kts 261°
2026-05-08 02:25 43.64408 -70.29967 31 ft 0 kts 275°
2026-05-08 02:25 43.64425 -70.30226 39 ft 88 kts 276°
2026-05-08 02:25 43.64515 -70.31596 304 ft 178 kts 279°
2026-05-08 02:25 43.64693 -70.33413 1471 ft 206 kts 283°
2026-05-08 02:26 43.64887 -70.35148 2496 ft 173 kts 286°
2026-05-08 02:26 43.65504 -70.36635 2928 ft 181 kts 323°
2026-05-08 02:26 43.66701 -70.37082 2989 ft 184 kts
2026-05-08 02:26 43.67860 -70.36259 3000 ft 191 kts 34°
2026-05-08 02:27 43.68975 -70.35014 2984 ft 217 kts 36°
2026-05-08 02:27 43.70173 -70.33656 2991 ft 223 kts 36°
2026-05-08 02:27 43.71385 -70.32298 2999 ft 226 kts 36°
2026-05-08 02:27 43.72558 -70.30809 3002 ft 230 kts 51°
2026-05-08 02:28 43.73159 -70.28732 2995 ft 235 kts 74°
2026-05-08 02:28 43.73504 -70.26498 2999 ft 237 kts 77°
2026-05-08 02:28 43.73468 -70.24254 3003 ft 228 kts 104°
2026-05-08 02:28 43.72999 -70.22221 3036 ft 210 kts 108°
2026-05-08 02:29 43.72532 -70.20355 3040 ft 203 kts 108°
2026-05-08 02:29 43.72075 -70.18520 3005 ft 202 kts 107°
2026-05-08 02:29 43.71611 -70.16677 3008 ft 203 kts 107°
2026-05-08 02:29 43.71479 -70.14769 2992 ft 197 kts 78°
2026-05-08 02:30 43.71744 -70.12911 3003 ft 197 kts 75°
2026-05-08 02:30 43.71834 -70.11004 2987 ft 196 kts 90°
2026-05-08 02:30 43.71761 -70.09097 3006 ft 199 kts 90°
2026-05-08 02:30 43.71679 -70.07162 3002 ft 200 kts 90°
2026-05-08 02:31 43.71595 -70.05221 3008 ft 201 kts 91°
2026-05-08 02:31 43.71513 -70.03274 2727 ft 203 kts 90°
2026-05-08 02:31 43.71424 -70.01349 2502 ft 194 kts 90°
2026-05-08 02:31 43.71331 -69.99469 2487 ft 198 kts 90°
2026-05-08 02:32 43.71232 -69.97555 2497 ft 197 kts 90°
2026-05-08 02:32 43.71169 -69.95657 2502 ft 194 kts 82°
2026-05-08 02:32 43.71671 -69.93981 2513 ft 186 kts 49°
2026-05-08 02:32 43.72468 -69.92593 2503 ft 184 kts 46°
2026-05-08 02:33 43.73368 -69.91355 2517 ft 177 kts 24°
2026-05-08 02:33 43.74524 -69.91225 2510 ft 156 kts 341°
2026-05-08 02:33 43.75471 -69.91747 2539 ft 143 kts 338°
2026-05-08 02:33 43.76414 -69.92102 2381 ft 128 kts 347°
2026-05-08 02:34 43.77238 -69.92237 2292 ft 117 kts 351°
2026-05-08 02:34 43.78030 -69.92330 2087 ft 109 kts 352°
2026-05-08 02:34 43.78788 -69.92417 1943 ft 109 kts 351°
2026-05-08 02:34 43.79537 -69.92507 1795 ft 106 kts 351°
2026-05-08 02:35 43.80278 -69.92600 1656 ft 106 kts 351°
2026-05-08 02:35 43.81020 -69.92695 1509 ft 105 kts 352°
2026-05-08 02:35 43.81756 -69.92789 1369 ft 106 kts 352°
2026-05-08 02:35 43.82506 -69.92881 1215 ft 106 kts 353°
2026-05-08 02:36 43.83246 -69.92981 1076 ft 106 kts 351°
2026-05-08 02:36 43.83983 -69.93085 932 ft 109 kts 353°
2026-05-08 02:36 43.84748 -69.93183 792 ft 109 kts 353°
2026-05-08 02:36 43.85511 -69.93276 612 ft 108 kts 354°
2026-05-08 02:37 43.86283 -69.93366 456 ft 111 kts 354°
2026-05-08 02:37 43.87053 -69.93467 291 ft 111 kts 354°
2026-05-08 02:37 43.87846 -69.93574 170 ft 115 kts 355°
2026-05-08 02:37 43.88634 -69.93674 77 ft 105 kts 355°
2026-05-08 02:38 43.89301 -69.93754 66 ft 83 kts 352°
2026-05-08 02:38 43.89642 -69.93803 72 ft 17 kts 356°
2026-05-08 02:38 43.89759 -69.93809 73 ft 9 kts 11°
2026-05-08 02:38 43.89807 -69.93723 73 ft 14 kts 89°
2026-05-08 02:39 43.89830 -69.93633 72 ft 10 kts 35°
2026-05-08 02:39 43.89870 -69.93525 73 ft 12 kts 61°
2026-05-08 02:39 43.89912 -69.93416 73 ft 11 kts 75°
2026-05-08 02:39 43.89915 -69.93396 72 ft 2 kts 80°
2026-05-08 02:40 43.89894 -69.93332 73 ft 11 kts 123°
2026-05-08 02:40 43.89864 -69.93208 73 ft 15 kts 89°
2026-05-08 02:40 43.89884 -69.93185 72 ft 0 kts 330°